Pecs, Hungary

5:38 AM CET on December 15, 2018 (GMT +0100)
Pecs

Weather History for LHPP - October, 2018

Change the Weather History Date:

Friday, October 12, 2018

  Actual Average Record
Temperature  
Mean Temperature 59 °F -  
Max Temperature 71 °F 56 °F - ()
Min Temperature 47 °F 41 °F - ()
Degree Days  
Heating Degree Days 6    
Growing Degree Days 9 (Base 50)    
Moisture  
Dew Point 46 °F    
Average Humidity 55    
Maximum Humidity 82    
Minimum Humidity 31    
Precipitation  
Precipitation 0.00 in 0.06 in - ()
Sea Level Pressure  
Sea Level Pressure 30.34 in    
Wind  
Wind Speed 7 mph ()    
Max Wind Speed 10 mph    
Max Gust Speed -    
Visibility 12.4 miles    
Events      
T = Trace of Precipitation, MM = Missing Value Source: Averaged Metar Reports

Daily Weather History Graph

Daily Weather History Graph

Search for Another Location

Airport or City:

Astronomy

Oct. 12, 2018 Rise Set
Actual Time 6:59 AM CEST 6:06 PM CEST
Civil Twilight 6:29 AM CEST 6:36 PM CEST
Nautical Twilight 5:54 AM CEST 7:11 PM CEST
Astronomical Twilight 5:20 AM CEST 7:46 PM CEST
Moon 10:23 AM CEST (10/12) 8:21 PM CEST (10/12)
Length of Visible Light 12h 07m
Length of Day
11h 07m
Waxing Crescent, 12% of the Moon is Illuminated
Oct 12
Waxing Crescent
Oct 16
First Quarter
Oct 24
Full
Oct 31
Last Quarter
Nov 7
New

Hourly Weather History & Observations

Time (CEST) Temp. Dew Point Humidity Pressure Visibility Wind Dir Wind Speed Gust Speed Precip Events Conditions
12:00 AM 54 °F 46 °F 65% 30.28 in - East 8.9 mph - -  
1:00 AM 52 °F 44 °F 66% 30.29 in - ENE 6.7 mph - -  
2:00 AM 52 °F 44 °F 65% 30.29 in - ENE 6.7 mph - -  
3:00 AM 50 °F 43 °F 71% 30.29 in - ENE 6.7 mph - -  
4:00 AM 49 °F 43 °F 72% 30.29 in - ENE 8.9 mph - -  
6:00 AM 47 °F 43 °F 79% 30.31 in - ENE 4.5 mph - -  
7:00 AM 48 °F 43 °F 78% 30.32 in - ENE 4.5 mph - -  
7:15 AM - - N/A% - - ENE 4.6 mph - N/A   Clear
8:15 AM 51.8 °F 46.4 °F 82% 30.33 in - ENE 5.8 mph - N/A   Clear
8:45 AM 53.6 °F 46.4 °F 77% 30.33 in - East 9.2 mph - N/A   Clear
9:00 AM 53 °F 47 °F 74% 30.34 in 7 mi East 8.9 mph - -   Partly Cloudy
9:15 AM 55.4 °F 46.4 °F 72% 30.36 in - East 10.4 mph - N/A   Clear
9:45 AM 57.2 °F 48.2 °F 72% 30.36 in - East 9.2 mph - N/A   Clear
10:00 AM 57 °F 47 °F 62% 30.36 in 9 mi East 8.9 mph - -   Partly Cloudy
10:15 AM 59.0 °F 48.2 °F 67% 30.36 in - East 9.2 mph - N/A   Clear
10:45 AM 62.6 °F 48.2 °F 59% 30.36 in - East 8.1 mph - N/A   Clear
11:15 AM 64.4 °F 48.2 °F 56% 30.36 in - ESE 10.4 mph - N/A   Clear
11:45 AM 64.4 °F 48.2 °F 56% 30.36 in - ESE 10.4 mph - N/A   Clear
12:00 PM 65 °F 48 °F 43% 30.36 in 11 mi ESE 8.9 mph - -   Partly Cloudy
12:15 PM 66.2 °F 48.2 °F 52% 30.36 in - SE 9.2 mph - N/A   Clear
12:45 PM 68.0 °F 48.2 °F 49% 30.36 in - SE 8.1 mph - N/A   Clear
1:00 PM 67 °F 48 °F 39% 30.35 in 12 mi SE 8.9 mph - -   Partly Cloudy
1:15 PM - - N/A% - - SE 9.2 mph - N/A   Clear
1:45 PM 69.8 °F 48.2 °F 46% 30.36 in - ESE 8.1 mph - N/A   Clear
2:00 PM 69 °F 48 °F 36% 30.33 in 12 mi ESE 6.7 mph - -   Partly Cloudy
2:15 PM 69.8 °F 48.2 °F 46% 30.36 in - ESE 8.1 mph - N/A   Clear
3:00 PM 70 °F 47 °F 32% 30.32 in 16 mi ESE 8.9 mph - -   Partly Cloudy
3:15 PM 71.6 °F 46.4 °F 41% 30.33 in - ESE 9.2 mph - N/A   Clear
3:45 PM 71.6 °F 46.4 °F 41% 30.33 in - ESE 9.2 mph - N/A   Clear
4:15 PM 71.6 °F 44.6 °F 38% 30.33 in - ESE 9.2 mph - N/A   Clear
4:45 PM 71.6 °F 44.6 °F 38% 30.33 in - ESE 10.4 mph - N/A   Clear
5:15 PM 69.8 °F 44.6 °F 40% 30.33 in - East 9.2 mph - N/A   Clear
5:45 PM 68.0 °F 42.8 °F 40% 30.33 in - ESE 6.9 mph - N/A   Clear
6:00 PM 67 °F 44 °F 31% 30.32 in 16 mi ESE 6.7 mph - -   Partly Cloudy
6:15 PM 62.6 °F 44.6 °F 52% 30.33 in - East 5.8 mph - N/A   Clear
6:45 PM 62.6 °F 44.6 °F 52% 30.36 in - East 3.5 mph - N/A   Clear
7:00 PM 63 °F 44 °F 38% 30.34 in 16 mi East 2.2 mph - -   Partly Cloudy
8:00 PM 60 °F 44 °F 43% 30.35 in - ENE 2.2 mph - -  
9:00 PM 60 °F 45 °F 46% 30.37 in - ENE 4.5 mph - -  
10:00 PM 57 °F 45 °F 55% 30.38 in - NE 4.5 mph - -  
11:00 PM 56 °F 46 °F 59% 30.39 in - ENE 4.5 mph - -